ENVAENKB

Guest
Details From ENVA - Vaernes
To ENKB - KVERNBERGET
Flight Number -
Tags generated
Created
Modified
Stats Distance 86 nm / 159 km
Max Altitude 4,600 ft / 1,402 m
Waypoints 3
Social Downloads 1
Likes 0
Share VATSIM

Download

Looking for another format? Having issues loading an existing format? Contact us
Advertisement - Login to hide

Notes

Basic altitude profile: - Ascent Rate: 2500ft/min - Ascent Speed: 250kts - Cruise Altitude: 35000ft - Cruise Speed: 420kts - Descent Rate: 1500ft/min - Descent Speed: 250kts Options: - Use NATs: yes - Use PACOTS: yes - Use low airways: yes - Use high airways: yes

Route

ENVA TURSI ENKB

ID Type Via Altitude (ft/m) Position (lat/lon) Dist (leg/tot) Name
O ENVA APT - 0 / 0 63.45760 / 10.91798 - / 0 nm Vaernes
TURSI FIX - 4,600 / 1,402 63.22750 / 8.58139 64 / 64 nm
O ENKB APT - 0 / 0 63.11187 / 7.82453 21 / 86 nm KVERNBERGET

Altitude Profile

Advertisement - Login to hide

ENVA

Details ICAO ENVA (TRD)
Name Trondheim Vaernes
Region Norway
Timezone Europe/Oslo (UTC+2.0)
Stats Elevation 56 ft / 17 m (AMSL)
Location 63.457500° 10.924200°
Runways 1
Magnetic Variation 3.833° E

METAR

ENVA 152120Z 28024KT 9999 VCSH FEW007 SCT018 BKN025 11/08 Q0992 RERA RMK WIND 670FT 27019G35KT

Decode

TAF

TAF ENVA 151700Z 1518/1618 27020KT 8000 -SHRA FEW020TCU BKN040 TEMPO 1518/1612 27025G35KT 4000 SHRA BKN014CB

Decode

Departure Runways

ID Width Length Bearing (true/mag) Surface Threshold Overrun Markings Lighting
09 148 ft / 45 m 9,744 ft / 2,970 m 90.18° / 86.35° ASPHALT 830 ft / 253 m 0 ft / 0 m PREC-APP CENTERLINE EDGE THRESHOLD CALVERT REIL-OMNI
27 148 ft / 45 m 9,744 ft / 2,970 m 270.24° / 266.40° ASPHALT 745 ft / 227 m 0 ft / 0 m PREC-APP CENTERLINE EDGE THRESHOLD CALVERT REIL-OMNI

ENKB

Details ICAO ENKB (KSU)
Name KVERNBERGET
Region Norway
Timezone Europe/Oslo (UTC+2.0)
Stats Elevation 204 ft / 62 m (AMSL)
Location 63.111900° 7.824530°
Runways 1
Magnetic Variation 2.323° E

METAR

ENKB 152120Z 26035G48KT 3700 -SHRA SCT002 BKN005 09/08 Q0997 RMK WIND 745FT 28048G59KT

Decode

TAF

Not found

Destination Runways

ID Width Length Bearing (true/mag) Surface Threshold Overrun Markings Lighting
07 148 ft / 45 m 6,192 ft / 1,887 m 71.39° / 69.07° ASPHALT 197 ft / 60 m 0 ft / 0 m PREC-APP CENTERLINE EDGE THRESHOLD MALS
25 148 ft / 45 m 6,192 ft / 1,887 m 251.42° / 249.10° ASPHALT 263 ft / 80 m 0 ft / 0 m APP CENTERLINE EDGE THRESHOLD

Approach Navaids

Runway Type Ident Frequency Range Bearing (true/mag) Slope Elevation
07 LOC-ILS KB 110.10 MHz 18 nm / 33 km 71.60° / 69.28 ° - 204 ft / 62 m (AMSL)
07 GS KB 110.10 MHz 10 nm / 19 km 71.81° / 69.49 ° 3.00° 204 ft / 62 m (AMSL)
07 OM OM - - 71.41° / 69.08 ° - 204 ft / 62 m (AMSL)
07 MM MM - - 71.41° / 69.08 ° - 204 ft / 62 m (AMSL)

Popular Alternatives